• In Hungary
  • List of Countries
  • For 7 days
  • Water Temperature
  • Satellite Maps
  • Weather Map
  • News
  • Weather Widgets
  • user-avatar
    Login

    Hourly Weather Horodets'

    Today, 23 October, Monday

    Time Temperature Precipitation Wind Pressure Humidity
    00:00 +3°C° 0 mm 3 mps 748 mmHg 76%
    01:00 +3°C° 0 mm 4 mps 748 mmHg 76%
    02:00 +3°C° 0 mm 3 mps 747 mmHg 76%
    03:00 +3°C° 0 mm 3 mps 747 mmHg 76%
    04:00 +3°C° 0 mm 4 mps 747 mmHg 75%
    05:00 +3°C° 0 mm 4 mps 747 mmHg 75%
    06:00 +3°C° 0 mm 4 mps 747 mmHg 75%
    07:00 +3°C° 0 mm 4 mps 746 mmHg 75%
    08:00 +3°C° 0 mm 4 mps 746 mmHg 75%
    09:00 +3°C° 0.1 mm 4 mps 746 mmHg 74%
    10:00 +4°C° 0.1 mm 4 mps 746 mmHg 72%
    11:00 +5°C° 0.1 mm 4 mps 746 mmHg 71%
    12:00 +5°C° 0.3 mm 4 mps 746 mmHg 71%
    13:00 +5°C° 0.3 mm 4 mps 746 mmHg 72%
    14:00 +5°C° 0.3 mm 4 mps 747 mmHg 73%
    15:00 +5°C° 0.4 mm 4 mps 747 mmHg 74%
    16:00 +5°C° 0.4 mm 4 mps 747 mmHg 76%
    17:00 +4°C° 0.4 mm 4 mps 747 mmHg 77%
    18:00 +4°C° 0.5 mm 4 mps 747 mmHg 77%
    19:00 +4°C° 0.5 mm 4 mps 748 mmHg 77%
    20:00 +4°C° 0.5 mm 4 mps 748 mmHg 77%
    21:00 +4°C° 0.3 mm 4 mps 748 mmHg 77%
    22:00 +3°C° 0.3 mm 4 mps 749 mmHg 77%
    23:00 +3°C° 0.3 mm 4 mps 749 mmHg 77%

    Tomorrow, 24 October, Tuesday

    Time Temperature Precipitation Wind Pressure Humidity
    00:00 +3°C° 0.2 mm 4 mps 750 mmHg 77%
    01:00 +3°C° 0.2 mm 4 mps 750 mmHg 77%
    02:00 +3°C° 0.2 mm 4 mps 750 mmHg 77%
    03:00 +1°C° 0.1 mm 4 mps 751 mmHg 77%
    04:00 +1°C° 0.1 mm 4 mps 751 mmHg 77%
    05:00 +1°C° 0.1 mm 4 mps 751 mmHg 77%
    06:00 +1°C° 0 mm 4 mps 752 mmHg 76%
    07:00 +1°C° 0 mm 4 mps 752 mmHg 75%
    08:00 +1°C° 0 mm 4 mps 753 mmHg 74%
    09:00 +3°C° 0 mm 4 mps 754 mmHg 69%
    10:00 +4°C° 0 mm 4 mps 754 mmHg 65%
    11:00 +5°C° 0 mm 4 mps 754 mmHg 61%
    12:00 +5°C° 0 mm 3 mps 755 mmHg 58%
    13:00 +7°C° 0 mm 3 mps 755 mmHg 55%
    14:00 +8°C° 0 mm 3 mps 755 mmHg 52%
    15:00 +7°C° 0 mm 3 mps 755 mmHg 56%
    16:00 +4°C° 0 mm 3 mps 755 mmHg 60%
    17:00 +4°C° 0 mm 2 mps 755 mmHg 65%
    18:00 +4°C° 0 mm 2 mps 756 mmHg 68%
    19:00 +3°C° 0 mm 2 mps 756 mmHg 70%
    20:00 +2°C° 0 mm 2 mps 757 mmHg 73%
    21:00 +2°C° 0 mm 2 mps 757 mmHg 74%
    22:00 +1°C° 0 mm 2 mps 757 mmHg 76%
    23:00 +1°C° 0 mm 2 mps 757 mmHg 77%

    Day after tomorrow, 25 October, Wednesday

    Time Temperature Precipitation Wind Pressure Humidity
    00:00 -1°C° 0 mm 2 mps 757 mmHg 78%
    01:00 -1°C° 0 mm 2 mps 758 mmHg 79%
    02:00 -1°C° 0 mm 2 mps 758 mmHg 80%
    03:00 -2°C° 0 mm 2 mps 758 mmHg 80%
    04:00 -2°C° 0 mm 2 mps 758 mmHg 80%
    05:00 -2°C° 0 mm 2 mps 758 mmHg 81%
    06:00 -2°C° 0 mm 2 mps 758 mmHg 79%
    07:00 -1°C° 0 mm 2 mps 758 mmHg 77%
    08:00 -1°C° 0 mm 2 mps 758 mmHg 74%
    09:00 +2°C° 0 mm 2 mps 758 mmHg 67%
    10:00 +2°C° 0 mm 3 mps 758 mmHg 60%
    11:00 +4°C° 0 mm 3 mps 758 mmHg 53%
    12:00 +5°C° 0 mm 3 mps 758 mmHg 51%
    13:00 +5°C° 0 mm 3 mps 757 mmHg 48%
    14:00 +7°C° 0 mm 3 mps 757 mmHg 46%
    15:00 +5°C° 0 mm 3 mps 757 mmHg 51%
    16:00 +5°C° 0 mm 2 mps 756 mmHg 56%
    17:00 +4°C° 0 mm 2 mps 756 mmHg 61%
    18:00 +3°C° 0 mm 3 mps 755 mmHg 61%
    19:00 +3°C° 0 mm 3 mps 755 mmHg 60%
    20:00 +3°C° 0 mm 4 mps 755 mmHg 60%
    21:00 +3°C° 0.1 mm 4 mps 754 mmHg 61%
    22:00 +4°C° 0.1 mm 4 mps 754 mmHg 62%
    23:00 +3°C° 0.1 mm 5 mps 754 mmHg 62%

    26 October, Thursday

    Time Temperature Precipitation Wind Pressure Humidity
    00:00 +3°C° 0.1 mm 5 mps 753 mmHg 63%
    01:00 +3°C° 0.1 mm 5 mps 752 mmHg 65%
    02:00 +5°C° 0.1 mm 5 mps 752 mmHg 66%
    03:00 +5°C° 0.5 mm 5 mps 751 mmHg 72%
    04:00 +5°C° 0.5 mm 5 mps 751 mmHg 78%
    05:00 +6°C° 0.5 mm 4 mps 750 mmHg 84%
    06:00 +6°C° 0.1 mm 4 mps 750 mmHg 87%
    07:00 +7°C° 0.1 mm 4 mps 750 mmHg 91%
    08:00 +8°C° 0.1 mm 4 mps 750 mmHg 94%
    09:00 +10°C° 0 mm 4 mps 750 mmHg 90%
    10:00 +11°C° 0 mm 4 mps 750 mmHg 85%
    11:00 +12°C° 0 mm 5 mps 750 mmHg 81%
    12:00 +12°C° 0 mm 5 mps 750 mmHg 80%
    13:00 +12°C° 0 mm 4 mps 750 mmHg 79%
    14:00 +12°C° 0 mm 4 mps 750 mmHg 77%
    15:00 +12°C° 0 mm 4 mps 750 mmHg 80%
    16:00 +11°C° 0 mm 3 mps 749 mmHg 83%
    17:00 +10°C° 0 mm 3 mps 749 mmHg 85%
    18:00 +10°C° 0 mm 3 mps 749 mmHg 87%
    19:00 +10°C° 0 mm 3 mps 748 mmHg 88%
    20:00 +10°C° 0 mm 3 mps 748 mmHg 90%
    21:00 +10°C° 0.2 mm 3 mps 748 mmHg 91%
    22:00 +10°C° 0.2 mm 4 mps 747 mmHg 92%
    23:00 +10°C° 0.2 mm 4 mps 747 mmHg 93%

    27 October, Friday

    Time Temperature Precipitation Wind Pressure Humidity
    00:00 +10°C° 0.2 mm 4 mps 746 mmHg 93%
    01:00 +10°C° 0.2 mm 4 mps 746 mmHg 93%
    02:00 +8°C° 0.2 mm 4 mps 745 mmHg 92%
    03:00 +8°C° 0 mm 4 mps 745 mmHg 93%
    04:00 +8°C° 0 mm 4 mps 745 mmHg 93%
    05:00 +8°C° 0 mm 3 mps 744 mmHg 94%
    06:00 +8°C° 0 mm 3 mps 744 mmHg 93%
    07:00 +8°C° 0 mm 3 mps 744 mmHg 92%
    08:00 +7°C° 0 mm 4 mps 743 mmHg 91%
    09:00 +8°C° 0.1 mm 4 mps 743 mmHg 88%
    10:00 +10°C° 0.1 mm 4 mps 743 mmHg 85%
    11:00 +10°C° 0.1 mm 4 mps 742 mmHg 81%
    12:00 +11°C° 0.1 mm 4 mps 742 mmHg 80%
    13:00 +11°C° 0.1 mm 4 mps 742 mmHg 78%
    14:00 +11°C° 0.1 mm 4 mps 741 mmHg 76%
    15:00 +10°C° 0.3 mm 3 mps 741 mmHg 80%
    16:00 +10°C° 0.3 mm 3 mps 741 mmHg 83%
    17:00 +9°C° 0.3 mm 3 mps 740 mmHg 86%
    18:00 +9°C° 0.1 mm 3 mps 740 mmHg 87%
    19:00 +8°C° 0.1 mm 3 mps 740 mmHg 89%
    20:00 +8°C° 0.1 mm 3 mps 740 mmHg 90%
    21:00 +7°C° 0 mm 3 mps 740 mmHg 91%
    22:00 +7°C° 0 mm 3 mps 740 mmHg 92%
    23:00 +5°C° 0 mm 3 mps 740 mmHg 94%

    28 October, Saturday

    Time Temperature Precipitation Wind Pressure Humidity
    00:00 +5°C° 0 mm 3 mps 740 mmHg 94%
    01:00 +5°C° 0 mm 3 mps 740 mmHg 95%
    02:00 +5°C° 0 mm 3 mps 739 mmHg 95%
    03:00 +5°C° 0 mm 3 mps 739 mmHg 94%
    04:00 +5°C° 0 mm 4 mps 739 mmHg 92%
    05:00 +6°C° 0 mm 4 mps 739 mmHg 91%
    06:00 +6°C° 0.4 mm 4 mps 739 mmHg 90%
    07:00 +6°C° 0.4 mm 4 mps 739 mmHg 89%
    08:00 +6°C° 0.4 mm 5 mps 739 mmHg 88%
    09:00 +6°C° 0.1 mm 5 mps 739 mmHg 82%
    10:00 +7°C° 0.1 mm 5 mps 739 mmHg 75%
    11:00 +7°C° 0.1 mm 5 mps 739 mmHg 68%
    12:00 +7°C° 0 mm 5 mps 738 mmHg 66%
    13:00 +8°C° 0 mm 5 mps 738 mmHg 64%
    14:00 +8°C° 0 mm 5 mps 737 mmHg 62%
    15:00 +7°C° 0 mm 5 mps 737 mmHg 67%
    16:00 +6°C° 0 mm 4 mps 736 mmHg 71%
    17:00 +7°C° 0 mm 3 mps 736 mmHg 75%
    18:00 +6°C° 0.1 mm 4 mps 735 mmHg 77%
    19:00 +6°C° 0.1 mm 4 mps 734 mmHg 78%
    20:00 +6°C° 0.1 mm 5 mps 734 mmHg 80%
    21:00 +6°C° 0.2 mm 5 mps 733 mmHg 81%
    22:00 +6°C° 0.2 mm 5 mps 732 mmHg 83%
    23:00 +6°C° 0.2 mm 5 mps 731 mmHg 84%

    29 October, Sunday

    Time Temperature Precipitation Wind Pressure Humidity
    00:00 +6°C° 0.4 mm 5 mps 731 mmHg 85%
    01:00 +6°C° 0.4 mm 5 mps 730 mmHg 85%
    02:00 +6°C° 0.4 mm 5 mps 729 mmHg 86%
    03:00 +6°C° 0.3 mm 4 mps 729 mmHg 87%
    04:00 +6°C° 0.3 mm 4 mps 729 mmHg 88%
    05:00 +6°C° 0.3 mm 4 mps 728 mmHg 88%
    06:00 +7°C° 0.1 mm 3 mps 729 mmHg 89%
    07:00 +7°C° 0.1 mm 2 mps 729 mmHg 90%
    08:00 +6°C° 0.1 mm 2 mps 729 mmHg 91%
    09:00 +7°C° 0.1 mm 2 mps 729 mmHg 89%
    10:00 +7°C° 0.1 mm 3 mps 730 mmHg 87%
    11:00 +8°C° 0.1 mm 3 mps 730 mmHg 85%
    12:00 +7°C° 0.5 mm 4 mps 731 mmHg 85%
    13:00 +6°C° 0.5 mm 5 mps 731 mmHg 86%
    14:00 +5°C° 0.5 mm 6 mps 732 mmHg 86%
    15:00 +5°C° 0.5 mm 6 mps 733 mmHg 86%
    16:00 +5°C° 0.5 mm 6 mps 733 mmHg 85%
    17:00 +5°C° 0.5 mm 6 mps 734 mmHg 85%
    18:00 +5°C° 0.2 mm 6 mps 735 mmHg 84%
    19:00 +4°C° 0.2 mm 6 mps 736 mmHg 84%
    20:00 +4°C° 0.2 mm 6 mps 736 mmHg 83%
    21:00 +4°C° 0.1 mm 6 mps 737 mmHg 85%
    22:00 +3°C° 0.1 mm 5 mps 737 mmHg 86%
    23:00 +3°C° 0.1 mm 5 mps 738 mmHg 88%
    Show more